Weather in Tampico

Mexico     22°15′53″N   97°49′54″W
temp.,
°C
wind,
m/s
gust,
m/s
humid.,
%
clouds,
%
prec.,
mm/h
press.,
hPa
HPBL,
m
14 april, wed
wed1401:00+25ne3396100 0.1 101189
04:00+26ese349394 0.2 101063
07:00+25ese459377 0.3 1011102
10:00+26e228974 0.3 101281
13:00+25ese669052 0.3 1011329
16:00+25ese579253 0.0 1008320
19:00+25ese7119441 0.0 1007428
22:00+25e349248 0.0 1010136
15 april, thu
thu1501:00+25sse3592100 0.0 1009152
04:00+25e3492100 0.0 1008121
07:00+25ese56934 0.0 1009220
10:00+25ese469140 0.0 1011359
13:00+25e559146 0.0 1009274
16:00+25ese568923 0.0 1007318
19:00+26e69900 0.0 1005359
22:00+25ese59912 0.0 1007266
16 april, fri
fri1601:00+25e33922 0.0 1007103
04:00+25ene11935 0.0 100558
07:00+25e33925 0.0 1006103
10:00+25ese57909 0.0 1007396
13:00+25ese669139 0.0 1005346
16:00+25e67883 0.0 1002397
19:00+25ese913890 0.0 1000351
22:00+26sse23870 0.0 1002101
17 april, sat
sat1701:00+25nne558810 0.0 1003119
04:00+25nne79915 0.0 1003267
07:00+25nne579246 0.0 1004237
10:00+25nne899229 0.1 1007442
13:00+25nne10139037 0.2 1008651
16:00+24nne14169090 0.0 1007722
19:00+22nne17207949 0.0 1008729
22:00+20n141671100 0.0 1013770
18 april, sun
sun1801:00+19nnw121568100 0.1 1014706
04:00+20nnw7965100 0.2 1014681
07:00+19n6772100 0.7 1015676
10:00+19nnw71069100 0.6 1017731
13:00+20nnw7862100 0.9 1016987
16:00+21n896097 0.0 1013905
19:00+21nne101177100 0.1 1013928
22:00+21n101282100 0.8 1015907